{"data":{"norad_id":57667,"epoch":"2026-05-24T14:24:12.798432Z","epoch_age_seconds":123781,"freshness":"FRESH","line1":"1 57667U 23124E   26144.60014813  .00000724  00000+0  36566-4 0  9995","line2":"2 57667  53.1591 214.4738 0001119  79.7741 280.3386 15.30191676155182","mean_motion":15.30191676,"eccentricity":0.0001119,"inclination_deg":53.1591,"raan_deg":214.4738,"arg_perigee_deg":79.7741,"mean_anomaly_deg":280.3386,"bstar":3.6566e-5,"rev_number":15518,"period_min":94.105857624597,"perigee_km":474.47303061784,"apogee_km":476.00681637332,"semimajor_km":6853.3769234956,"source":"CELESTRAK","updated_at":"2026-05-25T13:38:18.367399Z"}}